#timestamp,LO_Frequency,Hit,StdDev 
1513591215.6,286046992.0,N
1513591235.4,286046991.0,N
1513591255.2,286046992.0,N
1513591275.1,286046994.8,N
1513591276.0,286046994.8,N
1513591295.8,286046998.0,N
1513591315.6,286046995.7,N
1513591335.5,286046994.1,N
1513591355.3,286046992.1,N
1513591375.1,286046991.1,Y
1513591395.9,286046997.9,P
1513591415.7,286046993.5,P
1513591435.5,286046996.0,N
1513591455.4,286046992.1,Y
1513591475.2,286046997.6,P
1513591495.0,286046996.6,P
1513591495.9,286046996.6,P
1513591515.8,286046999.6,N
1513591535.6,286046997.1,N
1513591555.4,286046997.0,N
1513591575.3,286046997.7,N
1513591595.1,286046997.9,N
1513591596.0,286046997.9,N
1513591615.8,286046997.2,N
1513591635.6,286046999.4,N
1513591655.5,286046995.4,Y
1513591675.3,286046995.9,P
1513591695.1,286046994.6,P
1513591715.9,286046994.6,P
1513591735.7,286046992.2,Y
1513591755.6,286047000.9,P
1513591775.4,286046999.0,N
1513591795.2,286047000.9,N
1513591815.0,286046998.6,N
1513591815.9,286046998.6,N
1513591835.8,286047000.9,N
1513591855.6,286046998.7,N
1513591875.4,286046998.7,N
1513591895.3,286046999.2,N
1513591915.1,286046997.2,N
1513591916.0,286046997.2,N
1513591935.8,286046998.5,N
1513591955.7,286046999.2,N
1513591975.5,286046996.6,N
1513591995.3,286046998.5,N
1513592015.2,286046996.0,N
1513592035.9,286046990.4,Y
1513592055.7,286046988.8,P
1513592075.6,286046991.6,N
1513592095.4,286046988.3,N
1513592115.2,286046986.5,Y
1513592135.1,286046999.6,P
1513592136.0,286046999.6,N
1513592155.8,286046997.5,N
1513592175.6,286046995.6,N
1513592195.5,286046997.4,N
1513592215.3,286046994.5,N
1513592235.1,286046991.5,Y
1513592255.9,286046996.4,P
1513592275.7,286046998.0,P
1513592295.5,286046997.2,P
1513592315.4,286047002.3,Y
1513592335.2,286047008.9,P
1513592355.0,286047009.0,N
1513592355.9,286047009.0,N
1513592375.8,286047008.5,N
1513592395.6,286047015.6,Y
1513592415.4,286047006.3,P
1513592435.3,286047005.7,P
1513592455.1,286047001.9,P
1513592456.0,286047001.9,N
1513592475.8,286047000.5,N
1513592495.7,286047000.2,N
1513592515.5,286046999.8,N
1513592535.3,286047000.0,N
1513592555.1,286047002.5,N
1513592575.9,286047004.3,N
1513592595.7,286047002.5,N
1513592615.5,286047003.2,N
1513592635.4,286047006.8,N
1513592655.2,286047009.2,Y
1513592675.0,286047005.1,P
1513592676.0,286047005.1,P
1513592695.8,286047006.7,P
1513592715.6,286047009.0,Y
1513592735.5,286047005.8,P
1513592755.3,286047011.4,P
1513592775.1,286047016.4,P
1513592795.9,286047020.0,Y
1513592815.7,286047007.7,P
1513592835.5,286047015.4,P
1513592855.3,286047013.8,P
1513592875.2,286047016.6,Y
1513592895.0,286047007.6,P
1513592895.9,286047007.6,P
1513592915.8,286047005.1,N
1513592935.6,286047002.1,N
1513592955.4,286047002.0,N
1513592975.2,286046998.8,N
1513592995.1,286046999.7,N
1513592996.0,286046999.7,N
1513593015.8,286047003.6,N
1513593035.6,286047005.2,N
1513593055.5,286047004.7,N
1513593075.3,286047007.1,N
1513593095.1,286047005.2,N
1513593115.9,286047005.4,N
1513593135.7,286047006.3,N
1513593155.5,286047008.3,N
1513593175.4,286047008.4,N
1513593195.2,286047007.7,N
1513593215.0,286047011.2,Y
1513593215.9,286047011.2,P
1513593235.8,286047008.2,N
1513593255.6,286047011.0,P
1513593275.4,286047016.4,Y
1513593295.3,286047008.2,P
1513593315.1,286047010.4,P
1513593316.0,286047010.4,P
1513593335.8,286047008.8,Y
1513593355.7,286046999.5,P
1513593375.5,286046995.4,N
1513593395.3,286046995.4,N
1513593415.2,286046997.3,N
1513593435.9,286047002.7,N
1513593455.7,286047000.2,N
1513593475.6,286046998.6,N
1513593495.4,286047001.1,N
1513593515.2,286047000.7,N
1513593535.0,286046998.1,N
1513593535.9,286046998.1,N
1513593555.8,286046998.2,N
1513593575.6,286046995.5,N
1513593595.4,286046996.8,N
1513593615.3,286046993.3,N
1513593635.1,286046995.4,N
1513593655.8,286046998.0,N
1513593675.7,286046995.5,N
1513593695.5,286046992.6,N
1513593715.3,286046991.4,N
1513593735.2,286046990.7,N
1513593755.9,286046991.1,N
1513593775.7,286046985.6,Y
1513593795.6,286046988.5,P
1513593815.4,286046991.1,N
1513593835.2,286046992.8,N
1513593855.1,286046991.1,N
1513593856.0,286046991.1,Y
1513593875.8,286046998.3,P
1513593895.6,286047000.1,N
1513593915.5,286046997.7,N
1513593935.3,286046995.7,N
1513593955.1,286046996.4,N
1513593975.8,286046996.2,N
1513593995.7,286046993.9,N
1513594015.5,286046994.8,N
1513594035.4,286046992.9,Y
1513594055.2,286046993.9,P
1513594075.0,286046996.0,P
1513594075.9,286046996.0,P
1513594095.8,286046991.3,Y
1513594115.6,286046996.1,P
1513594135.4,286046992.9,P
1513594155.2,286046993.0,P
1513594175.1,286046992.3,Y
1513594176.0,286046992.3,P
1513594195.8,286046997.1,N
1513594215.7,286046998.0,N
1513594235.5,286046997.7,N
1513594255.3,286046993.5,N
1513594275.1,286046996.7,N
1513594295.9,286046998.8,N
1513594315.7,286046995.4,N
1513594335.5,286046995.0,N
1513594355.4,286046995.7,N
1513594375.2,286046998.0,N
1513594395.0,286046998.4,N
1513594395.9,286046998.4,N
1513594415.8,286047000.4,N
1513594435.6,286046999.7,N
1513594455.4,286047000.3,N
1513594475.3,286047002.7,N
1513594495.1,286047003.8,N
1513594496.0,286047003.8,N
1513594515.8,286047003.5,N
1513594535.7,286047001.4,N
1513594555.5,286047001.8,N
1513594575.3,286047003.6,N
1513594595.1,286047007.1,N
1513594615.9,286047008.5,N
1513594635.7,286047007.8,N
1513594655.5,286047010.5,N
1513594675.4,286047008.8,N
1513594695.2,286047004.5,N
1513594715.0,286047003.0,N
1513594715.9,286047003.0,N
1513594735.8,286047002.3,N
1513594755.6,286047003.2,N
1513594775.4,286047001.7,N
1513594795.3,286047006.4,N
